EW3148 Weather Reports


Display with metric or nautical units.
time (UTC)temp
F
wind
direction
speed
MPH
gust
MPH
rain 1hr
in
rain 24hr
in
rain mn
in
humidity
%
barometer
mb
20260510191248 87 178 5.0 14.0 0.00 0.00 0.00 61 1010.3
20260510190246 86 148 6.0 14.0 0.00 0.00 0.00 61 1010.3
20260510182950 86 168 5.0 16.0 0.00 0.00 0.00 61 1010.5
20260510181924 85 146 6.0 16.0 0.00 0.00 0.00 64 1010.7
20260510180911 86 185 4.0 14.0 0.00 0.00 0.00 65 1010.8
20260510175934 86 105 4.0 11.0 0.00 0.00 0.00 65 1011.0
20260510174912 85 128 4.0 11.0 0.00 0.00 0.00 66 1011.2
20260510173856 84 122 6.0 12.0 0.00 0.00 0.00 68 1011.4
20260510172835 83 177 5.0 13.0 0.00 0.00 0.00 67 1011.5
20260510171815 83 91 5.0 13.0 0.00 0.00 0.00 69 1011.5
20260510165702 83 130 4.0 15.0 0.00 0.00 0.00 69 1011.7
20260510164718 82 133 5.0 15.0 0.00 0.00 0.00 71 1011.7
20260510163715 83 200 4.0 10.0 0.00 0.00 0.00 68 1011.8
20260510162733 83 198 4.0 11.0 0.00 0.00 0.00 70 1011.7
20260510161724 82 134 4.0 11.0 0.00 0.00 0.00 72 1011.7
20260510160710 82 150 4.0 9.0 0.00 0.00 0.00 71 1011.5
20260510154618 81 144 4.0 11.0 0.00 0.00 0.00 73 1011.5
20260510153632 81 188 4.0 9.0 0.00 0.00 0.00 74 1011.6
20260510152603 81 140 2.0 9.0 0.00 0.00 0.00 74 1011.5
20260510151604 80 68 3.0 9.0 0.00 0.00 0.00 74 1011.6
20260510150530 79 105 3.0 8.0 0.00 0.00 0.00 76 1011.4
20260510145526 79 159 3.0 8.0 0.00 0.00 0.00 77 1011.3
20260510143420 78 202 2.0 7.0 0.00 0.00 0.00 77 1011.0
20260510140157 76 184 1.0 6.0 0.00 0.00 0.00 81 1010.6
20260510135210 75 113 2.0 8.0 0.00 0.00 0.00 83 1010.5
20260510134200 74 182 3.0 8.0 0.00 0.00 0.00 84 1010.4
20260510133203 73 142 3.0 9.0 0.00 0.00 0.00 86 1010.1
20260510132201 72 166 3.0 9.0 0.00 0.00 0.00 86 1009.9
20260510131137 71 169 3.0 7.0 0.00 0.00 0.00 87 1009.8
20260510123937 70 177 2.0 6.0 0.00 0.00 0.00 90 1009.4
20260510121758 69 216 2.0 7.0 0.00 0.00 0.00 91 1009.0
20260510115643 69 186 2.0 5.0 0.00 0.00 0.00 91 1008.9
20260510114635 69 181 1.0 5.0 0.00 0.00 0.00 91 1008.8
20260510113611 69 223 1.0 7.0 0.00 0.01 0.00 91 1008.7
20260510111511 69 173 1.0 6.0 0.00 0.01 0.00 91 1008.8
20260510110515 69 215 1.0 8.0 0.00 0.01 0.00 91 1008.6
20260510105527 69 204 2.0 8.0 0.00 0.02 0.00 91 1008.5
20260510104522 69 193 3.0 10.0 0.00 0.02 0.00 91 1008.3
20260510103539 69 178 3.0 10.0 0.00 0.02 0.00 91 1008.3
20260510102518 69 237 2.0 8.0 0.00 0.02 0.00 91 1008.3
20260510100353 69 177 3.0 8.0 0.00 0.02 0.00 90 1008.3
20260510094257 70 190 3.0 10.0 0.00 0.02 0.00 89 1008.3
20260510092227 71 192 3.0 10.0 0.00 0.02 0.00 89 1008.3
20260510091153 71 207 3.0 8.0 0.00 0.02 0.00 88 1008.2
20260510090139 71 188 3.0 11.0 0.00 0.03 0.00 88 1008.2
20260510085132 71 176 4.0 11.0 0.00 0.03 0.00 87 1008.3
20260510084109 71 185 3.0 7.0 0.00 0.03 0.00 87 1008.3
20260510083132 71 190 3.0 7.0 0.00 0.03 0.00 87 1008.4
20260510082100 71 190 4.0 7.0 0.00 0.03 0.00 86 1008.4
20260510081124 72 213 4.0 8.0 0.00 0.03 0.00 86 1008.4
20260510080114 72 186 3.0 8.0 0.00 0.03 0.00 85 1008.5
20260510075117 72 171 3.0 8.0 0.00 0.03 0.00 85 1008.5
20260510072956 72 149 3.0 7.0 0.00 0.03 0.00 84 1008.6
20260510071940 73 206 3.0 8.0 0.00 0.03 0.00 83 1008.7
20260510070951 73 166 3.0 8.0 0.00 0.03 0.00 83 1008.5
20260510065958 73 164 3.0 8.0 0.00 0.03 0.00 82 1008.5
20260510065015 73 176 3.0 8.0 0.00 0.03 0.00 82 1008.5
20260510063943 74 188 3.0 8.0 0.00 0.03 0.00 82 1008.4
20260510062908 74 169 3.0 9.0 0.00 0.03 0.00 81 1008.4
20260510061843 74 161 3.0 9.0 0.00 0.03 0.00 81 1008.4
20260510055758 75 202 3.0 7.0 0.00 0.03 0.00 80 1008.3
20260510054806 75 161 3.0 9.0 0.00 0.03 0.00 79 1008.3
20260510053754 75 156 3.0 9.0 0.00 0.03 0.00 79 1008.4
20260510052757 76 139 3.0 8.0 0.00 0.03 0.00 79 1008.4
20260510051741 76 166 3.0 8.0 0.00 0.03 0.00 79 1008.4
20260510050723 76 151 2.0 8.0 0.00 0.03 0.00 79 1008.3
20260510045652 76 157 2.0 7.0 0.00 0.03 0.03 79 1008.2
20260510043608 77 163 2.0 5.0 0.00 0.03 0.03 79 1008.2
20260510042617 77 123 2.0 5.0 0.00 0.03 0.03 79 1008.2
20260510041550 77 190 2.0 5.0 0.00 0.03 0.03 78 1008.3
20260510035422 77 173 2.0 5.0 0.00 0.03 0.03 78 1008.1
20260510034418 77 165 2.0 5.0 0.00 0.03 0.03 78 1008.0
20260510033421 77 159 2.0 5.0 0.00 0.03 0.03 78 1007.9
20260510032349 78 164 2.0 5.0 0.00 0.03 0.03 79 1007.9
20260510030226 78 157 1.0 4.0 0.00 0.03 0.03 79 1007.7
20260510025233 78 161 2.0 6.0 0.00 0.03 0.03 78 1007.5
20260510024202 79 173 3.0 8.0 0.00 0.03 0.03 77 1007.2
20260510023226 79 163 2.0 8.0 0.00 0.03 0.03 77 1007.1
20260510022234 79 153 1.0 7.0 0.00 0.03 0.03 75 1007.1
20260510021229 80 91 2.0 7.0 0.00 0.03 0.03 74 1007.1
20260510020209 80 157 1.0 5.0 0.00 0.03 0.03 72 1006.9
20260510015155 80 162 1.0 4.0 0.00 0.03 0.03 69 1006.8
20260510013014 81 144 1.0 4.0 0.00 0.03 0.03 63 1006.6
20260510012018 82 146 1.0 4.0 0.00 0.03 0.03 61 1006.6
20260510011037 82 129 1.0 5.0 0.00 0.03 0.03 59 1006.5
20260510010005 83 121 1.0 5.0 0.00 0.03 0.03 57 1006.4
20260510005023 83 179 2.0 6.0 0.00 0.03 0.03 57 1006.3
20260510003950 84 157 2.0 7.0 0.00 0.03 0.03 55 1006.3
20260510003005 84 125 2.0 9.0 0.00 0.03 0.03 53 1006.2
20260510002015 85 128 2.0 9.0 0.00 0.03 0.03 51 1006.1
20260510000943 86 124 2.0 8.0 0.00 0.03 0.03 49 1006.0
20260509235939 86 140 3.0 8.0 0.00 0.03 0.03 49 1006.0
20260509233834 87 129 3.0 10.0 0.00 0.03 0.03 47 1005.7
20260509232829 87 107 3.0 10.0 0.00 0.03 0.03 47 1005.7
20260509231815 88 101 5.0 10.0 0.00 0.03 0.03 48 1005.6
20260509230829 89 148 2.0 9.0 0.00 0.03 0.03 49 1005.6
20260509225813 90 123 2.0 8.0 0.00 0.03 0.03 51 1005.5
20260509224821 90 98 2.0 8.0 0.00 0.03 0.03 52 1005.5
20260509223845 90 79 1.0 6.0 0.00 0.03 0.03 52 1005.6
20260509221716 90 36 1.0 7.0 0.00 0.03 0.03 54 1005.5
20260509220648 89 117 1.0 6.0 0.00 0.03 0.03 55 1005.5
20260509215654 88 126 2.0 7.0 0.00 0.03 0.03 55 1005.5
20260509214712 87 136 2.0 7.0 0.00 0.03 0.03 56 1005.6
20260509213731 85 150 2.0 6.0 0.00 0.03 0.03 57 1005.8
20260509212732 84 144 4.0 14.0 0.00 0.03 0.03 57 1006.0
20260509210547 81 148 7.0 17.0 0.00 0.03 0.03 56 1006.4
20260509205551 87 119 5.0 17.0 0.00 0.03 0.03 47 1006.4
20260509204610 93 93 1.0 9.0 0.00 0.03 0.03 47 1006.5
20260509202444 93 294 3.0 9.0 0.00 0.03 0.03 49 1006.4
20260509201439 92 260 3.0 7.0 0.00 0.03 0.03 48 1006.6
20260509200411 92 269 1.0 6.0 0.00 0.03 0.03 50 1006.7
20260509195409 92 340 2.0 8.0 0.00 0.03 0.03 51 1006.7
20260509194336 92 246 2.0 10.0 0.00 0.03 0.03 50 1006.7
20260509193328 92 232 2.0 10.0 0.00 0.03 0.03 51 1007.0
20260509192322 91 257 3.0 8.0 0.00 0.03 0.03 53 1007.1